Time,TemperatureF,DewpointF,PressureIn,WindDirection,WindDirectionDegrees,WindSpeedMPH,WindSpeedGustMPH,Humidity,HourlyPrecipIn,Conditions,Clouds,dailyrainin,SoftwareType,DateUTC
2013-01-29 00:01:00,16.0,-1.0,-100.00,WNW,298,2.0,6.0,46,0.00,,,-99.99,,2013-01-29 07:01:00,
2013-01-29 00:11:00,16.0,-2.0,-100.00,WNW,298,3.0,6.0,44,0.00,,,-99.99,,2013-01-29 07:11:00,
2013-01-29 00:21:00,15.0,0.0,-100.00,NNW,347,6.0,9.0,53,0.00,,,-99.99,,2013-01-29 07:21:00,
2013-01-29 00:31:00,16.0,-3.0,-100.00,NNW,340,6.0,11.0,42,0.00,,,-99.99,,2013-01-29 07:31:00,
2013-01-29 00:41:00,16.0,-1.0,-100.00,NW,320,6.0,13.0,46,0.00,,,-99.99,,2013-01-29 07:41:00,
2013-01-29 00:52:00,16.0,-3.0,-100.00,WNW,299,9.0,12.0,42,0.00,,,-99.99,,2013-01-29 07:52:00,
2013-01-29 01:02:00,15.0,-5.0,-100.00,WSW,254,7.0,12.0,39,0.00,,,-99.99,,2013-01-29 08:02:00,
2013-01-29 01:11:00,16.0,-4.0,-100.00,SW,236,9.0,14.0,40,0.00,,,-99.99,,2013-01-29 08:11:00,
2013-01-29 01:21:00,16.0,-4.0,-100.00,West,264,12.0,16.0,42,0.00,,,-99.99,,2013-01-29 08:21:00,
2013-01-29 01:31:00,15.0,-4.0,-100.00,West,277,11.0,15.0,42,0.00,,,-99.99,,2013-01-29 08:31:00,
2013-01-29 01:41:00,14.0,-3.0,-100.00,WNW,294,10.0,12.0,46,0.00,,,-99.99,,2013-01-29 08:41:00,
2013-01-29 01:52:00,13.0,-2.0,-100.00,WNW,298,9.0,11.0,50,0.00,,,-99.99,,2013-01-29 08:52:00,
2013-01-29 02:01:00,12.0,-2.0,-100.00,WNW,298,9.0,13.0,54,0.00,,,-99.99,,2013-01-29 09:01:00,
2013-01-29 02:11:00,12.0,-2.0,-100.00,WNW,296,6.0,9.0,54,0.00,,,-99.99,,2013-01-29 09:11:00,
2013-01-29 02:21:00,11.0,-1.0,-100.00,WNW,291,6.0,9.0,56,0.00,,,-99.99,,2013-01-29 09:21:00,
2013-01-29 02:31:00,11.0,0.0,-100.00,WNW,282,6.0,8.0,61,0.00,,,-99.99,,2013-01-29 09:31:00,
2013-01-29 02:42:00,12.0,-1.0,-100.00,NW,313,7.0,9.0,55,0.00,,,-99.99,,2013-01-29 09:42:00,
2013-01-29 02:51:00,12.0,-1.0,-100.00,WSW,256,3.0,6.0,56,0.00,,,-99.99,,2013-01-29 09:51:00,
2013-01-29 03:01:00,13.0,-2.0,-100.00,SW,227,2.0,4.0,50,0.00,,,-99.99,,2013-01-29 10:01:00,
2013-01-29 03:11:00,12.0,-4.0,-100.00,SSW,210,4.0,11.0,47,0.00,,,-99.99,,2013-01-29 10:11:00,
2013-01-29 03:21:00,13.0,-3.0,-100.00,WSW,237,7.0,12.0,47,0.00,,,-99.99,,2013-01-29 10:21:00,
2013-01-29 03:32:00,12.0,-3.0,-100.00,SSW,210,7.0,11.0,52,0.00,,,-99.99,,2013-01-29 10:32:00,
2013-01-29 03:41:00,12.0,-2.0,-100.00,SSW,200,10.0,15.0,52,0.00,,,-99.99,,2013-01-29 10:41:00,
2013-01-29 03:51:00,12.0,-3.0,-100.00,South,184,12.0,17.0,49,0.00,,,-99.99,,2013-01-29 10:51:00,
2013-01-29 04:01:00,12.0,-3.0,-100.00,SSW,212,6.0,16.0,50,0.00,,,-99.99,,2013-01-29 11:01:00,
2013-01-29 04:11:00,12.0,-3.0,-100.00,South,181,6.0,10.0,49,0.00,,,-99.99,,2013-01-29 11:11:00,
2013-01-29 04:21:00,14.0,-4.0,-100.00,NW,308,10.0,21.0,44,0.00,,,-99.99,,2013-01-29 11:21:00,
2013-01-29 04:32:00,13.0,-4.0,-100.00,WNW,295,10.0,18.0,46,0.00,,,-99.99,,2013-01-29 11:32:00,
2013-01-29 04:42:00,11.0,-3.0,-100.00,NW,309,6.0,12.0,50,0.00,,,-99.99,,2013-01-29 11:42:00,
2013-01-29 04:52:00,11.0,-3.0,-100.00,SW,236,4.0,9.0,52,0.00,,,-99.99,,2013-01-29 11:52:00,
2013-01-29 05:02:00,13.0,-3.0,-100.00,West,264,11.0,23.0,48,0.00,,,-99.99,,2013-01-29 12:02:00,
2013-01-29 05:12:00,13.0,-4.0,-100.00,West,271,21.0,29.0,48,0.00,,,-99.99,,2013-01-29 12:12:00,
2013-01-29 05:22:00,13.0,-4.0,-100.00,West,272,25.0,33.0,46,0.00,,,-99.99,,2013-01-29 12:22:00,
2013-01-29 05:32:00,13.0,-4.0,-100.00,West,271,26.0,34.0,47,0.00,,,-99.99,,2013-01-29 12:32:00,
2013-01-29 05:42:00,13.0,-4.0,-100.00,West,275,24.0,32.0,47,0.00,,,-99.99,,2013-01-29 12:42:00,
2013-01-29 05:52:00,12.0,-3.0,-100.00,WNW,285,22.0,31.0,49,0.00,,,-99.99,,2013-01-29 12:52:00,
2013-01-29 06:02:00,12.0,-3.0,-100.00,WNW,284,21.0,29.0,49,0.00,,,-99.99,,2013-01-29 13:02:00,
2013-01-29 06:11:00,12.0,-3.0,-100.00,WNW,287,21.0,29.0,49,0.00,,,-99.99,,2013-01-29 13:11:00,
2013-01-29 06:22:00,13.0,-4.0,-100.00,West,278,27.0,35.0,47,0.00,,,-99.99,,2013-01-29 13:22:00,
2013-01-29 06:32:00,13.0,-4.0,-100.00,West,280,27.0,34.0,47,0.00,,,-99.99,,2013-01-29 13:32:00,
2013-01-29 06:42:00,12.0,-4.0,-100.00,West,281,26.0,37.0,48,0.00,,,-99.99,,2013-01-29 13:42:00,
2013-01-29 06:52:00,12.0,-4.0,-100.00,West,280,24.0,29.0,48,0.00,,,-99.99,,2013-01-29 13:52:00,
2013-01-29 07:02:00,12.0,-3.0,-100.00,West,275,23.0,30.0,49,0.00,,,-99.99,,2013-01-29 14:02:00,
2013-01-29 07:12:00,12.0,-3.0,-100.00,West,275,21.0,28.0,49,0.00,,,-99.99,,2013-01-29 14:12:00,
2013-01-29 07:21:00,12.0,-3.0,-100.00,West,272,22.0,29.0,50,0.00,,,-99.99,,2013-01-29 14:21:00,
2013-01-29 07:33:00,12.0,-3.0,-100.00,West,270,21.0,29.0,50,0.00,,,-99.99,,2013-01-29 14:33:00,
2013-01-29 07:43:00,12.0,-3.0,-100.00,West,270,22.0,29.0,50,0.00,,,-99.99,,2013-01-29 14:43:00,
2013-01-29 07:52:00,12.0,-3.0,-100.00,West,267,22.0,28.0,51,0.00,,,-99.99,,2013-01-29 14:52:00,
2013-01-29 08:02:00,12.0,-3.0,-100.00,West,267,21.0,26.0,50,0.00,,,-99.99,,2013-01-29 15:02:00,
2013-01-29 08:12:00,12.0,-3.0,-100.00,West,271,19.0,26.0,50,0.00,,,-99.99,,2013-01-29 15:12:00,
2013-01-29 08:22:00,13.0,-3.0,-100.00,WNW,285,14.0,21.0,48,0.00,,,-99.99,,2013-01-29 15:22:00,
2013-01-29 08:33:00,14.0,-3.0,-100.00,WNW,285,14.0,20.0,47,0.00,,,-99.99,,2013-01-29 15:33:00,
2013-01-29 08:42:00,14.0,-3.0,-100.00,WNW,282,17.0,22.0,46,0.00,,,-99.99,,2013-01-29 15:42:00,
2013-01-29 08:52:00,15.0,-3.0,-100.00,West,280,18.0,27.0,46,0.00,,,-99.99,,2013-01-29 15:52:00,
2013-01-29 09:02:00,15.0,-2.0,-100.00,West,281,20.0,27.0,45,0.00,,,-99.99,,2013-01-29 16:02:00,
2013-01-29 09:12:00,15.0,-3.0,-100.00,WNW,282,21.0,27.0,44,0.00,,,-99.99,,2013-01-29 16:12:00,
2013-01-29 09:22:00,16.0,-2.0,-100.00,West,281,21.0,26.0,44,0.00,,,-99.99,,2013-01-29 16:22:00,
2013-01-29 09:32:00,16.0,-2.0,-100.00,West,277,22.0,29.0,44,0.00,,,-99.99,,2013-01-29 16:32:00,
2013-01-29 09:42:00,17.0,-3.0,-100.00,West,275,22.0,29.0,42,0.00,,,-99.99,,2013-01-29 16:42:00,
2013-01-29 09:52:00,17.0,-2.0,-100.00,West,271,23.0,30.0,42,0.00,,,-99.99,,2013-01-29 16:52:00,
2013-01-29 10:03:00,18.0,-2.0,-100.00,West,274,21.0,26.0,40,0.00,,,-99.99,,2013-01-29 17:03:00,
2013-01-29 10:12:00,18.0,-2.0,-100.00,West,274,21.0,27.0,40,0.00,,,-99.99,,2013-01-29 17:12:00,
2013-01-29 10:22:00,18.0,-3.0,-100.00,West,274,20.0,27.0,38,0.00,,,-99.99,,2013-01-29 17:22:00,
2013-01-29 10:32:00,18.0,-2.0,-100.00,West,274,20.0,26.0,39,0.00,,,-99.99,,2013-01-29 17:32:00,
2013-01-29 10:42:00,18.0,-2.0,-100.00,West,272,20.0,26.0,40,0.00,,,-99.99,,2013-01-29 17:42:00,
2013-01-29 10:52:00,20.0,-3.0,-100.00,West,274,19.0,26.0,36,0.00,,,-99.99,,2013-01-29 17:52:00,
2013-01-29 11:03:00,19.0,-4.0,-100.00,West,270,22.0,28.0,36,0.00,,,-99.99,,2013-01-29 18:03:00,
2013-01-29 11:12:00,19.0,-1.0,-100.00,West,270,22.0,27.0,42,0.00,,,-99.99,,2013-01-29 18:12:00,
2013-01-29 11:22:00,19.0,-2.0,-100.00,West,271,21.0,26.0,38,0.00,,,-99.99,,2013-01-29 18:22:00,
2013-01-29 11:33:00,20.0,-1.0,-100.00,West,270,19.0,27.0,39,0.00,,,-99.99,,2013-01-29 18:33:00,
2013-01-29 11:42:00,20.0,-3.0,-100.00,WNW,282,19.0,24.0,35,0.00,,,-99.99,,2013-01-29 18:42:00,
2013-01-29 11:51:00,20.0,-4.0,-100.00,WNW,292,20.0,27.0,34,0.00,,,-99.99,,2013-01-29 18:51:00,
2013-01-29 12:02:00,19.0,-3.0,-100.00,WNW,291,20.0,26.0,36,0.00,,,-99.99,,2013-01-29 19:02:00,
2013-01-29 12:12:00,20.0,-3.0,-100.00,WNW,292,19.0,27.0,35,0.00,,,-99.99,,2013-01-29 19:12:00,
2013-01-29 12:22:00,20.0,-3.0,-100.00,NW,305,18.0,24.0,35,0.00,,,-99.99,,2013-01-29 19:22:00,
2013-01-29 12:32:00,20.0,-4.0,-100.00,NW,305,16.0,22.0,34,0.00,,,-99.99,,2013-01-29 19:32:00,
2013-01-29 12:42:00,20.0,-2.0,-100.00,NW,304,16.0,22.0,36,0.00,,,-99.99,,2013-01-29 19:42:00,
2013-01-29 12:52:00,21.0,-3.0,-100.00,WNW,299,16.0,21.0,35,0.00,,,-99.99,,2013-01-29 19:52:00,
2013-01-29 13:02:00,20.0,-3.0,-100.00,West,278,18.0,23.0,36,0.00,,,-99.99,,2013-01-29 20:02:00,
2013-01-29 13:12:00,20.0,-5.0,-100.00,WNW,294,18.0,23.0,32,0.00,,,-99.99,,2013-01-29 20:12:00,
2013-01-29 13:22:00,20.0,-3.0,-100.00,NW,316,17.0,24.0,35,0.00,,,-99.99,,2013-01-29 20:22:00,
2013-01-29 13:33:00,20.0,-3.0,-100.00,NW,305,18.0,27.0,36,0.00,,,-99.99,,2013-01-29 20:33:00,
2013-01-29 13:42:00,20.0,-3.0,-100.00,WNW,302,17.0,24.0,36,0.00,,,-99.99,,2013-01-29 20:42:00,
2013-01-29 13:53:00,19.0,-4.0,-100.00,NW,315,17.0,24.0,35,0.00,,,-99.99,,2013-01-29 20:53:00,
2013-01-29 14:03:00,19.0,-4.0,-100.00,NW,322,18.0,27.0,34,0.00,,,-99.99,,2013-01-29 21:03:00,
2013-01-29 14:12:00,19.0,-3.0,-100.00,NW,318,18.0,27.0,36,0.00,,,-99.99,,2013-01-29 21:12:00,
2013-01-29 14:22:00,19.0,-1.0,-100.00,NW,312,19.0,26.0,40,0.00,,,-99.99,,2013-01-29 21:22:00,
2013-01-29 14:33:00,20.0,-1.0,-100.00,NW,319,18.0,26.0,39,0.00,,,-99.99,,2013-01-29 21:33:00,
2013-01-29 14:42:00,19.0,-1.0,-100.00,NW,318,19.0,27.0,41,0.00,,,-99.99,,2013-01-29 21:42:00,
2013-01-29 14:52:00,19.0,0.0,-100.00,NW,319,20.0,27.0,43,0.00,,,-99.99,,2013-01-29 21:52:00,
2013-01-29 15:02:00,18.0,-3.0,-100.00,NW,316,21.0,27.0,38,0.00,,,-99.99,,2013-01-29 22:02:00,
2013-01-29 15:12:00,18.0,0.0,-100.00,NW,320,20.0,27.0,44,0.00,,,-99.99,,2013-01-29 22:12:00,
2013-01-29 15:22:00,19.0,0.0,-100.00,NW,318,21.0,28.0,44,0.00,,,-99.99,,2013-01-29 22:22:00,
2013-01-29 15:33:00,18.0,2.0,-100.00,NW,322,21.0,30.0,48,0.00,,,-99.99,,2013-01-29 22:33:00,
2013-01-29 15:42:00,17.0,2.0,-100.00,NW,322,22.0,27.0,50,0.00,,,-99.99,,2013-01-29 22:42:00,
2013-01-29 15:52:00,17.0,2.0,-100.00,NW,320,21.0,29.0,52,0.00,,,-99.99,,2013-01-29 22:52:00,
2013-01-29 16:02:00,17.0,3.0,-100.00,NW,318,23.0,30.0,55,0.00,,,-99.99,,2013-01-29 23:02:00,
2013-01-29 16:12:00,16.0,4.0,-100.00,NW,320,22.0,30.0,57,0.00,,,-99.99,,2013-01-29 23:12:00,
2013-01-29 16:22:00,16.0,3.0,-100.00,NW,315,22.0,30.0,56,0.00,,,-99.99,,2013-01-29 23:22:00,
2013-01-29 16:32:00,15.0,3.0,-100.00,NW,322,22.0,29.0,58,0.00,,,-99.99,,2013-01-29 23:32:00,
2013-01-29 16:42:00,15.0,4.0,-100.00,NW,319,21.0,27.0,61,0.00,,,-99.99,,2013-01-29 23:42:00,
2013-01-29 16:52:00,15.0,4.0,-100.00,NW,318,21.0,26.0,62,0.00,,,-99.99,,2013-01-29 23:52:00,
2013-01-29 17:02:00,14.0,4.0,-100.00,NW,312,19.0,27.0,62,0.00,,,-99.99,,2013-01-30 00:02:00,
2013-01-29 17:12:00,14.0,5.0,-100.00,NW,316,18.0,23.0,67,0.00,,,-99.99,,2013-01-30 00:12:00,
2013-01-29 17:22:00,13.0,4.0,-100.00,NW,316,15.0,21.0,66,0.00,,,-99.99,,2013-01-30 00:22:00,
2013-01-29 17:32:00,13.0,4.0,-100.00,NW,319,15.0,19.0,66,0.00,,,-99.99,,2013-01-30 00:32:00,
2013-01-29 17:42:00,13.0,4.0,-100.00,NW,319,15.0,20.0,66,0.00,,,-99.99,,2013-01-30 00:42:00,
2013-01-29 17:52:00,13.0,4.0,-100.00,NW,315,13.0,18.0,66,0.00,,,-99.99,,2013-01-30 00:52:00,
2013-01-29 18:02:00,12.0,4.0,-100.00,NW,319,10.0,14.0,67,0.00,,,-99.99,,2013-01-30 01:02:00,
2013-01-29 18:11:00,12.0,3.0,-100.00,NW,318,9.0,12.0,67,0.00,,,-99.99,,2013-01-30 01:11:00,
2013-01-29 18:22:00,12.0,4.0,-100.00,NW,322,12.0,16.0,69,0.00,,,-99.99,,2013-01-30 01:22:00,
2013-01-29 18:32:00,12.0,4.0,-100.00,NW,319,12.0,16.0,70,0.00,,,-99.99,,2013-01-30 01:32:00,
2013-01-29 18:42:00,12.0,4.0,-100.00,NW,320,11.0,17.0,70,0.00,,,-99.99,,2013-01-30 01:42:00,
2013-01-29 18:52:00,12.0,4.0,-100.00,NW,318,16.0,19.0,69,0.00,,,-99.99,,2013-01-30 01:52:00,
2013-01-29 19:02:00,12.0,4.0,-100.00,NW,316,15.0,21.0,69,0.00,,,-99.99,,2013-01-30 02:02:00,
2013-01-29 19:12:00,11.0,3.0,-100.00,NW,312,16.0,21.0,69,0.00,,,-99.99,,2013-01-30 02:12:00,
2013-01-29 19:22:00,11.0,3.0,-100.00,NW,315,14.0,17.0,69,0.00,,,-99.99,,2013-01-30 02:22:00,
2013-01-29 19:33:00,11.0,3.0,-100.00,NW,316,15.0,19.0,69,0.00,,,-99.99,,2013-01-30 02:33:00,
2013-01-29 19:42:00,11.0,3.0,-100.00,NW,320,15.0,18.0,70,0.00,,,-99.99,,2013-01-30 02:42:00,
2013-01-29 19:52:00,10.0,3.0,-100.00,NW,319,15.0,18.0,71,0.00,,,-99.99,,2013-01-30 02:52:00,
2013-01-29 20:03:00,11.0,4.0,-100.00,NW,320,13.0,16.0,72,0.00,,,-99.99,,2013-01-30 03:03:00,
2013-01-29 20:11:00,11.0,4.0,-100.00,NW,320,13.0,16.0,72,0.00,,,-99.99,,2013-01-30 03:11:00,
2013-01-29 20:22:00,12.0,6.0,-100.00,NW,320,17.0,21.0,76,0.00,,,-99.99,,2013-01-30 03:22:00,
2013-01-29 20:32:00,12.0,8.0,-100.00,NW,325,20.0,25.0,84,0.01,,,-99.99,,2013-01-30 03:32:00,
2013-01-29 20:42:00,12.0,8.0,-100.00,NW,325,19.0,23.0,85,0.00,,,-99.99,,2013-01-30 03:42:00,
2013-01-29 20:51:00,12.0,7.0,-100.00,NW,322,16.0,20.0,82,0.00,,,-99.99,,2013-01-30 03:51:00,
2013-01-29 21:02:00,12.0,8.0,-100.00,NW,319,16.0,20.0,83,0.00,,,-99.99,,2013-01-30 04:02:00,
2013-01-29 21:11:00,12.0,8.0,-100.00,NW,315,15.0,19.0,83,0.00,,,-99.99,,2013-01-30 04:11:00,
2013-01-29 21:22:00,11.0,7.0,-100.00,NW,318,13.0,16.0,84,0.00,,,-99.99,,2013-01-30 04:22:00,
2013-01-29 21:32:00,11.0,7.0,-100.00,NW,313,14.0,17.0,84,0.00,,,-99.99,,2013-01-30 04:32:00,
2013-01-29 21:41:00,11.0,7.0,-100.00,NW,315,12.0,17.0,84,0.00,,,-99.99,,2013-01-30 04:41:00,
2013-01-29 21:52:00,10.0,6.0,-100.00,NW,311,12.0,14.0,85,0.00,,,-99.99,,2013-01-30 04:52:00,
2013-01-29 22:03:00,10.0,7.0,-100.00,NW,319,11.0,14.0,85,0.00,,,-99.99,,2013-01-30 05:03:00,
2013-01-29 22:12:00,11.0,8.0,-100.00,NW,320,11.0,14.0,87,0.00,,,-99.99,,2013-01-30 05:12:00,
2013-01-29 22:22:00,11.0,8.0,-100.00,NW,323,12.0,14.0,89,0.00,,,-99.99,,2013-01-30 05:22:00,
2013-01-29 22:32:00,11.0,8.0,-100.00,NW,326,12.0,16.0,88,0.04,,,-99.99,,2013-01-30 05:32:00,
2013-01-29 22:42:00,11.0,8.0,-100.00,NNW,332,13.0,17.0,89,0.01,,,-99.99,,2013-01-30 05:42:00,
2013-01-29 22:52:00,10.0,8.0,-100.00,NNW,335,12.0,16.0,89,0.00,,,-99.99,,2013-01-30 05:52:00,
2013-01-29 23:02:00,10.0,7.0,-100.00,NW,326,11.0,14.0,87,0.00,,,-99.99,,2013-01-30 06:02:00,
2013-01-29 23:11:00,9.0,6.0,-100.00,NW,325,11.0,14.0,86,0.00,,,-99.99,,2013-01-30 06:11:00,
2013-01-29 23:21:00,11.0,5.0,-100.00,NW,306,16.0,19.0,79,0.00,,,-99.99,,2013-01-30 06:21:00,
2013-01-29 23:32:00,11.0,4.0,-100.00,NW,304,16.0,20.0,74,0.00,,,-99.99,,2013-01-30 06:32:00,
2013-01-29 23:41:00,11.0,6.0,-100.00,NW,312,17.0,22.0,79,0.00,,,-99.99,,2013-01-30 06:41:00,
2013-01-29 23:51:00,10.0,5.0,-100.00,NW,318,17.0,21.0,78,0.00,,,-99.99,,2013-01-30 06:51:00,